GFSMW_500_rhum_243.txt.gz
RH
18 19 23 29 35 49 62 77 78 79 81 43 13 12 18 22 26 30 28 27 25 23 19 19 15 12 19 46 55 12 11 12 12 10 10 11 11 12 26 47 50 46 34
18 18 19 21 25 32 40 53 70 83 91 74 18 11 18 25 27 24 19 17 14 13 12 10 11 12 10 10 10 11 10 11 12 12 12 13 17 16 16 16 20 34 41
18 19 22 23 21 21 22 34 80 91 78 69 41 12 12 60 16 14 13 12 12 12 12 12 14 14 14 14 13 13 20 27 34 28 29 33 28 20 19 19 19 17 17
20 22 26 28 28 25 21 34 80 89 72 51 48 22 52 15 14 15 14 15 16 16 17 16 16 18 20 21 21 21 28 38 34 29 26 25 24 20 21 23 25 24 24
22 25 30 33 32 29 28 49 95 94 85 72 54 67 87 16 19 24 19 21 22 22 24 25 27 28 28 29 29 30 29 26 21 19 18 21 26 26 25 26 25 24 23
27 34 39 36 36 33 31 43 80 97 86 91 70 87 96 35 72 54 22 22 23 24 24 24 25 27 28 28 26 24 23 23 24 24 24 22 22 25 25 23 26 30 31
39 48 46 40 41 41 40 40 51 88 95 98 96 92 70 78 100 44 25 47 22 23 23 23 22 22 23 23 23 23 23 23 22 21 20 18 16 16 16 17 20 21 26
50 58 54 49 49 52 49 46 50 74 86 100 100 100 100 100 100 82 46 92 65 29 21 21 21 22 22 23 22 22 20 18 16 15 14 15 16 16 17 18 20 24 26
54 54 59 57 56 57 52 43 44 47 54 90 100 100 100 100 100 100 100 98 96 77 46 31 26 27 23 21 20 20 21 26 33 43 44 43 39 35 32 28 25 21 14
50 49 61 61 60 60 68 65 53 49 49 65 97 100 100 100 100 100 100 100 100 74 49 48 52 61 42 33 32 37 50 54 53 48 40 34 34 31 23 16 12 12 13
51 46 63 67 66 69 77 76 51 50 53 62 88 100 100 100 99 100 100 100 100 100 100 100 100 100 100 98 98 86 73 65 64 45 39 27 19 14 14 17 17 15 14
52 52 70 75 71 73 71 73 70 52 48 81 100 100 100 100 100 100 100 100 100 100 100 100 100 99 96 90 90 92 83 78 79 63 38 15 18 25 23 19 17 14 10
55 59 64 69 65 64 67 74 69 53 71 100 100 100 100 99 100 100 100 100 100 100 100 100 100 100 93 88 85 86 86 87 80 29 18 31 34 22 16 11 8 7 7
60 70 67 71 69 69 66 52 38 62 100 100 100 100 100 100 100 99 100 100 100 100 100 100 99 96 90 89 88 87 58 25 27 29 39 27 16 10 8 8 11 14 16
65 72 75 69 67 65 50 33 40 96 100 100 100 100 100 100 100 100 100 100 100 100 100 93 91 95 95 94 71 64 44 31 40 34 18 11 9 11 16 17 19 29 44
81 79 75 68 62 44 30 38 86 100 100 100 100 100 100 100 100 100 100 100 100 100 96 90 95 95 97 100 79 54 55 46 20 13 10 11 17 23 31 50 56 63 67
88 84 83 62 36 29 35 64 98 100 100 100 100 100 100 100 100 100 100 100 100 100 89 100 99 96 100 100 81 54 25 15 11 10 18 26 44 59 64 70 72 76 76
94 89 65 39 36 42 63 74 94 96 98 100 100 100 100 100 100 98 100 100 100 100 100 100 97 97 100 67 41 22 16 12 15 24 42 66 70 77 84 89 85 78 76
85 64 42 30 37 52 77 84 88 85 98 100 100 100 100 100 100 100 99 100 100 100 100 97 95 99 79 42 23 17 13 20 29 51 72 86 92 98 99 99 96 92 86
58 41 28 23 35 63 94 90 66 83 100 100 100 100 100 100 100 100 100 100 100 100 100 97 100 97 47 26 16 14 23 35 50 77 87 89 98 100 100 100 100 100 100
45 24 23 26 30 59 81 97 80 92 100 100 100 100 100 100 100 100 100 100 100 100 97 100 100 55 29 19 15 24 38 44 74 90 98 99 100 100 100 100 100 100 100
27 30 35 35 39 41 72 90 79 100 100 99 100 100 99 98 100 100 100 100 100 100 100 100 71 36 23 16 17 31 39 68 87 97 100 100 100 100 100 100 100 100 100
48 42 46 44 43 58 69 82 100 100 100 100 100 100 100 100 100 100 100 100 100 100 100 87 46 30 17 10 15 36 46 87 98 100 100 100 100 100 100 98 97 100 100
84 78 71 80 78 100 100 100 100 100 100 100 96 98 100 100 100 100 100 100 100 100 94 58 39 24 12 11 10 29 57 95 100 100 100 100 100 98 94 94 98 100 100
76 81 87 85 94 100 100 100 100 100 100 100 100 100 100 100 100 100 100 100 100 100 71 49 37 20 15 15 10 24 65 97 100 100 100 100 99 100 100 100 100 100 100
65 68 80 91 96 100 100 100 100 100 100 100 100 100 100 100 100 100 100 100 100 88 61 56 36 21 20 20 11 19 61 96 100 100 99 98 100 100 100 100 100 100 100

GFSMW_500_rhum_249.txt.gz
RH
12 11 11 11 12 11 11 12 13 18 30 33 28 23 27 50 82 82 78 79 45 22 24 25 25 25 25 21 18 18 20 21 19 16 14 24 45 33 10 10 11 13 17
13 14 13 13 13 13 14 17 22 30 33 34 29 25 26 51 88 90 79 76 56 36 47 31 32 41 31 27 25 23 22 17 14 14 24 32 18 15 14 15 18 12 13
14 15 16 16 20 22 23 25 31 37 36 34 32 30 30 33 56 90 78 68 61 54 55 30 21 21 20 19 20 16 14 13 13 18 32 35 33 21 15 18 22 22 20
20 18 19 19 19 20 24 28 35 40 39 37 34 33 34 48 67 83 73 53 75 34 45 66 28 16 15 14 14 14 13 14 16 15 13 14 14 19 25 32 31 29 31
26 25 23 23 25 26 27 35 42 43 42 42 40 39 39 42 75 85 60 44 78 56 38 60 63 27 18 17 17 18 21 22 21 22 21 22 25 26 28 34 38 32 29
30 30 31 32 32 35 37 40 44 46 43 48 50 48 47 48 59 83 79 53 94 66 70 91 44 25 22 24 24 24 25 28 30 31 31 31 32 34 33 30 26 21 20
36 36 36 37 40 42 41 42 45 48 46 47 57 57 53 52 59 92 96 92 76 91 89 82 34 26 30 27 28 27 27 29 30 32 32 31 30 28 26 24 23 23 24
36 37 40 42 43 48 46 45 45 50 50 51 66 64 61 56 55 79 100 100 99 100 66 79 86 59 63 66 48 28 27 27 26 26 25 26 26 26 25 24 23 22 21
43 46 51 53 51 55 53 53 52 53 54 54 72 67 70 68 69 65 78 100 100 100 100 92 100 100 100 98 61 32 32 26 25 25 24 23 22 22 21 20 19 17 14
52 47 53 58 56 59 56 54 55 61 60 69 80 75 79 81 76 72 73 100 100 100 100 100 100 100 100 84 54 71 76 73 36 24 24 22 23 23 23 19 19 20 22
53 50 52 63 59 60 66 64 59 64 74 88 94 95 80 85 78 58 70 84 98 100 100 100 100 99 100 100 100 100 100 100 95 56 50 50 70 70 74 74 80 54 63
62 59 63 69 70 70 77 75 58 66 82 93 99 97 89 87 90 82 75 76 99 100 100 100 99 99 100 100 100 100 92 85 84 88 93 90 88 84 75 79 81 73 62
74 68 73 80 83 84 80 66 47 59 78 94 99 99 99 92 91 91 89 79 94 100 100 100 100 100 100 97 99 98 99 95 86 84 80 77 77 76 73 73 72 71 74
87 76 85 89 85 81 74 50 58 85 98 100 100 100 100 95 72 72 100 100 100 100 100 100 100 100 98 92 88 83 84 91 92 90 86 81 81 78 74 64 45 32 28
75 79 82 86 84 66 48 63 93 95 99 100 97 100 100 99 98 100 100 100 98 100 99 100 99 100 98 85 92 92 92 97 94 84 84 86 79 56 39 34 37 42 37
72 74 73 63 46 41 51 78 93 95 98 100 98 98 100 100 99 100 100 100 98 100 100 94 94 100 94 88 92 87 96 85 80 83 75 90 77 60 58 43 23 16 10
72 70 57 55 64 85 100 100 99 99 100 99 98 100 100 98 99 100 100 100 100 93 94 99 100 98 92 90 91 96 92 83 88 93 90 79 54 28 16 12 9 9 10
77 82 89 99 100 99 97 94 94 100 100 98 99 100 100 100 100 100 100 100 98 97 100 100 99 99 89 97 91 98 87 86 88 91 53 25 16 10 9 8 10 18 39
89 100 100 98 88 82 81 87 90 86 83 87 93 97 100 100 100 100 100 99 99 99 99 100 100 100 100 97 96 86 84 77 87 55 25 13 9 8 9 12 27 52 80
100 99 87 76 74 77 90 99 89 65 56 59 77 97 100 100 100 100 100 95 100 100 100 99 100 100 100 95 85 87 76 84 74 27 12 8 8 10 17 38 69 91 96
71 62 71 75 70 55 45 44 58 68 59 42 62 100 100 100 100 100 100 100 100 100 100 100 100 96 91 94 89 80 83 88 35 14 9 8 12 23 52 81 97 98 97
50 52 61 77 63 55 58 59 52 42 40 49 62 100 100 100 100 100 100 100 100 100 100 100 100 97 96 90 83 85 92 57 19 10 8 11 15 45 77 91 98 98 100
57 66 68 67 61 73 72 69 67 66 59 63 72 100 100 100 100 100 100 100 100 100 100 100 100 100 99 94 90 92 90 32 14 10 9 10 20 69 90 96 100 100 100
68 74 71 55 71 72 64 74 78 86 86 98 98 100 100 100 100 100 100 100 99 99 96 92 100 100 100 94 93 99 69 26 14 12 10 10 42 82 97 100 100 100 100
79 81 78 65 59 75 72 62 74 90 100 100 100 100 100 100 100 100 100 100 100 100 97 97 95 100 100 93 96 100 51 24 17 17 12 9 42 84 100 100 100 100 100
72 71 69 69 68 69 88 96 80 76 100 100 100 100 100 100 100 100 100 100 100 100 95 93 95 100 99 98 100 98 47 25 20 20 13 9 33 87 100 100 100 100 100

GFSMW_500_rhum_255.txt.gz
RH
24 23 28 29 26 19 19 18 22 22 22 24 28 27 22 20 20 22 26 27 30 31 31 34 36 57 69 76 66 63 44 37 28 22 19 19 19 22 32 26 65 83 79
35 31 29 27 30 19 20 22 23 25 25 23 24 26 25 26 26 28 29 33 36 35 34 38 52 66 58 77 56 36 33 37 35 29 23 22 22 23 25 17 24 64 61
34 32 26 24 23 24 23 23 23 22 21 20 22 23 26 31 34 35 38 42 44 40 40 44 63 68 55 48 40 51 56 40 49 34 32 28 25 23 20 15 17 23 32
31 30 28 26 26 26 24 24 24 23 22 22 21 22 26 34 36 41 44 48 48 46 49 53 67 54 54 51 61 40 26 22 28 27 28 26 24 20 17 16 19 22 22
35 32 30 28 27 25 26 27 30 33 32 29 26 26 29 36 41 46 50 50 52 52 54 58 69 51 41 54 70 36 83 91 77 75 25 19 18 17 17 19 24 27 29
41 40 40 35 31 30 31 32 35 39 38 36 33 33 34 41 48 54 55 54 55 57 60 66 76 62 43 72 82 64 83 92 92 40 22 23 20 19 20 21 23 23 22
50 47 42 38 34 30 31 34 37 41 42 40 40 37 42 47 56 60 60 61 61 63 66 77 93 87 63 47 79 96 94 97 97 42 38 28 27 27 27 27 28 30 30
48 42 34 33 30 33 36 40 44 45 47 46 47 47 48 54 64 68 66 65 66 80 86 91 100 100 100 99 97 88 87 96 100 52 35 38 33 30 30 30 31 32 33
42 36 37 36 37 42 46 48 42 43 44 47 54 54 56 57 70 78 82 77 77 96 99 100 100 100 100 100 100 100 97 99 98 91 81 80 44 35 33 30 29 29 29
46 43 39 37 41 46 52 52 50 49 51 57 61 60 62 65 79 84 90 92 90 100 100 100 100 100 100 100 100 99 96 98 100 99 95 79 77 70 67 52 35 29 28
54 50 48 47 48 55 54 60 54 49 52 64 66 68 69 78 83 86 88 95 100 100 100 100 99 100 100 100 100 100 97 96 100 97 97 98 96 78 81 82 65 48 45
49 52 56 56 61 63 61 58 56 54 52 58 69 70 73 82 86 86 85 98 98 100 100 97 96 95 100 99 100 100 100 98 97 91 90 96 96 95 96 89 79 77 72
56 66 71 68 64 66 64 62 63 63 66 68 68 70 70 75 69 77 95 100 100 100 100 100 99 100 100 99 100 96 97 96 86 92 98 100 100 100 98 94 92 86 77
74 84 85 81 70 67 69 63 59 58 67 68 64 66 65 59 60 81 88 96 100 100 100 100 100 99 100 100 100 100 100 90 85 91 92 93 99 98 93 92 88 84 78
92 92 89 82 83 79 63 55 56 66 67 66 67 61 53 52 66 80 98 100 100 100 100 100 98 100 100 100 100 100 100 99 90 95 95 99 98 100 99 98 84 75 72
94 92 88 92 95 82 70 61 58 59 70 74 77 83 84 86 93 97 100 100 100 100 100 100 100 100 100 100 100 100 100 94 91 100 100 100 100 100 95 76 67 70 74
100 95 96 90 84 73 64 60 58 63 76 86 96 89 80 89 98 98 100 100 100 100 100 100 100 100 100 99 100 100 99 89 94 100 100 100 100 90 76 72 84 71 50
100 98 89 78 72 66 62 60 64 80 83 76 74 72 70 81 97 100 100 100 100 100 100 100 99 100 97 94 98 100 100 96 99 100 100 100 95 80 69 84 56 22 14
95 89 84 76 70 64 67 80 80 69 55 47 53 62 68 87 100 100 100 100 100 100 100 100 100 94 93 100 100 99 100 100 100 100 100 99 92 73 73 73 45 12 10
87 85 79 73 63 68 78 74 52 46 44 44 49 60 53 59 100 100 100 100 100 100 100 100 99 100 96 95 92 99 100 100 100 100 100 95 84 80 72 47 16 12 14
94 87 73 63 78 81 71 51 48 44 39 41 57 48 46 48 50 100 100 100 100 100 100 100 100 96 87 96 100 100 100 100 100 100 100 88 81 83 66 26 13 14 20
88 81 66 72 75 74 63 56 56 52 47 54 51 59 62 61 54 71 100 100 100 100 100 100 100 96 91 100 100 100 100 100 100 100 96 88 96 75 29 12 14 17 31
100 95 78 71 82 84 80 86 72 59 59 56 60 58 62 62 62 50 71 96 100 100 100 100 100 94 98 100 100 100 100 100 100 100 100 100 97 42 12 12 14 27 52
100 100 95 77 80 97 100 100 92 67 66 67 57 67 56 59 70 63 69 100 100 100 100 100 100 100 100 93 95 100 100 100 100 100 100 100 77 18 14 12 12 26 60
91 92 96 100 100 100 99 100 90 63 48 45 57 63 72 63 65 77 83 100 100 100 100 100 96 100 100 100 97 97 98 100 100 100 100 100 46 20 20 12 10 14 63
67 66 67 78 96 100 100 100 83 66 62 63 68 72 77 96 75 83 92 100 100 100 100 100 100 100 100 96 96 98 100 100 100 100 100 100 40 23 25 17 9 8 52

GFSMW_500_rhum_258.txt.gz
RH
26 27 27 29 29 29 29 28 24 21 18 16 14 15 14 12 13 14 15 14 15 16 18 19 25 32 36 34 39 55 67 83 63 39 57 30 23 21 21 24 30 38 31
29 29 28 28 29 29 26 24 23 24 22 23 22 21 19 20 20 19 18 17 18 18 18 21 29 37 41 40 44 66 56 71 65 45 37 35 30 26 29 28 37 32 21
38 38 38 35 30 29 26 24 25 24 25 27 27 27 26 23 23 24 24 22 22 24 26 31 37 44 46 46 50 69 41 52 42 49 41 36 42 52 27 33 35 27 17
43 42 40 37 34 32 33 34 30 28 28 28 28 32 30 28 28 30 30 30 31 34 38 40 48 52 52 51 58 57 37 43 47 38 27 38 41 40 35 31 28 22 17
51 51 47 41 39 39 38 35 32 29 27 26 28 27 26 29 30 32 36 38 40 45 51 54 57 57 58 57 67 50 31 50 52 54 33 35 42 57 48 35 25 24 25
55 55 49 45 45 42 36 31 31 32 31 30 30 31 29 28 32 34 38 44 50 54 57 61 64 62 64 64 72 60 41 64 85 53 80 97 95 96 71 46 26 26 27
60 55 52 50 47 42 40 38 35 31 29 32 36 33 35 36 38 38 38 48 59 67 70 70 71 70 71 74 81 84 68 81 98 100 100 100 99 53 36 29 29 31 29
67 61 60 60 55 48 49 46 43 44 43 43 44 41 40 38 38 38 38 49 59 74 79 81 81 79 86 89 98 100 100 98 77 100 99 100 100 99 82 36 36 36 32
62 58 56 54 56 56 50 50 50 50 45 43 43 44 43 39 37 38 46 55 62 74 85 90 89 94 95 100 100 100 100 100 100 100 99 100 99 100 83 76 62 37 34
63 62 59 60 54 51 52 51 53 51 49 48 47 50 48 41 39 39 45 58 64 77 83 92 96 100 100 100 100 100 100 100 100 100 99 100 100 100 93 75 71 65 46
67 71 71 60 52 51 48 51 52 56 57 53 54 55 47 43 44 48 57 66 68 73 81 100 100 100 100 100 100 100 100 100 96 99 100 100 100 100 100 100 95 91 100
87 82 71 58 55 50 48 54 60 65 57 52 54 49 43 43 46 54 62 64 70 76 83 99 100 99 100 97 100 100 100 98 97 99 100 100 100 100 100 100 100 100 100
81 75 68 65 60 62 70 71 71 69 63 57 54 48 45 47 55 57 59 61 64 67 81 100 100 100 100 100 100 100 100 100 93 100 98 100 100 100 97 94 95 100 100
82 74 69 67 71 75 80 83 76 71 65 59 52 50 54 57 57 60 62 58 55 68 93 97 91 100 100 100 100 100 99 100 100 98 99 97 99 94 87 79 89 90 91
76 77 70 74 75 79 79 76 72 65 61 56 54 57 59 61 66 73 76 80 85 95 99 100 99 100 100 100 100 100 99 100 100 100 100 100 99 99 87 94 100 100 100
99 97 100 100 91 88 83 78 70 65 59 59 58 57 57 63 73 76 79 81 90 100 100 100 99 100 100 100 100 100 100 100 100 100 98 98 100 100 98 92 97 99 86
100 100 99 96 95 90 87 81 72 66 62 61 59 61 67 66 73 72 73 84 95 100 97 100 100 100 100 100 100 100 98 99 100 99 96 83 97 100 97 94 98 84 67
100 100 100 95 96 95 91 82 72 67 63 61 72 69 62 51 46 52 63 78 96 100 100 100 100 100 99 100 100 99 98 92 92 100 96 94 100 99 98 100 85 69 76
100 99 99 100 96 97 93 86 78 64 63 71 68 49 43 38 38 46 60 90 100 100 100 99 100 100 99 100 100 95 95 99 100 100 100 100 100 100 100 95 80 72 77
100 100 100 98 96 98 98 89 72 69 74 57 48 44 46 39 39 50 54 74 100 100 100 100 98 94 94 98 98 100 100 96 95 100 100 100 100 100 96 82 77 76 46
100 100 100 100 100 100 97 85 91 87 71 56 52 53 44 41 47 45 45 47 93 100 100 100 100 100 100 100 100 100 96 100 100 100 100 100 100 100 94 80 80 74 78
100 100 100 100 100 100 97 92 95 87 75 67 62 61 48 51 49 52 56 60 66 100 100 100 100 100 100 100 100 100 100 100 100 100 100 100 100 93 82 84 82 84 17
91 100 100 100 100 100 100 99 94 97 90 80 70 70 59 54 56 55 57 63 58 93 100 98 100 100 100 100 100 100 100 100 100 100 100 100 100 91 90 88 92 22 13
79 95 100 100 100 100 100 100 100 99 95 73 81 75 73 67 59 59 55 63 66 76 100 100 100 100 100 100 100 100 100 100 100 100 100 100 100 97 98 96 35 13 11
83 100 100 100 100 100 100 85 71 71 84 87 86 65 48 46 55 67 68 63 70 86 100 100 100 100 100 100 100 100 96 100 100 99 99 100 100 100 100 72 21 15 11
95 100 100 100 80 50 41 43 76 83 98 100 87 66 52 50 63 66 84 83 74 92 100 100 100 100 100 100 100 100 100 100 97 96 100 100 100 100 100 52 24 22 12

GFSMW_500_rhum_261.txt.gz
RH
36 29 29 28 28 28 30 31 31 29 26 23 22 22 30 26 21 21 20 20 18 19 20 21 21 19 18 18 19 24 30 36 37 40 48 59 81 62 29 26 24 29 43
36 33 33 34 36 37 36 34 31 30 28 32 43 46 35 25 23 23 24 23 22 21 24 23 22 23 23 23 26 30 38 44 43 49 59 58 63 56 40 45 33 29 26
37 36 39 40 40 40 39 37 36 32 34 38 34 29 27 25 26 27 26 24 23 21 21 21 23 25 27 30 36 43 47 50 50 56 56 45 58 49 40 37 34 28 35
40 40 42 46 50 52 49 44 39 38 38 32 28 28 30 31 31 32 29 28 27 26 24 23 24 26 30 38 49 57 57 56 55 60 41 29 39 42 41 42 41 66 71
49 49 50 56 56 56 54 49 44 43 40 35 37 36 34 35 36 35 35 34 32 30 28 27 26 31 36 50 57 63 64 62 63 64 29 38 53 64 39 49 45 44 96
54 53 55 57 56 54 56 52 50 51 48 46 49 44 42 40 36 37 36 33 33 33 32 31 34 42 52 64 69 73 71 68 70 69 37 43 53 79 37 39 62 96 62
49 51 52 51 53 61 64 60 60 57 54 54 46 43 40 36 34 36 35 34 38 36 34 35 38 51 68 77 79 81 77 75 84 98 64 82 95 90 94 97 99 99 95
52 54 56 57 63 66 63 60 55 56 48 44 42 39 36 33 33 39 39 37 39 37 35 36 41 60 80 88 90 92 89 94 99 100 100 100 100 100 100 100 100 87 92
69 70 70 70 68 66 67 64 64 60 51 50 46 40 37 37 38 42 42 38 39 38 36 39 49 67 88 96 100 100 100 99 97 100 100 100 100 100 100 100 100 100 79
69 70 70 71 71 70 69 72 73 66 60 55 50 44 41 43 46 45 43 42 41 39 39 44 58 79 95 100 100 99 100 100 98 95 100 100 100 100 100 100 100 100 100
78 78 82 84 84 88 85 78 72 69 64 54 47 45 45 46 52 47 45 42 40 41 42 47 58 76 100 100 100 94 100 98 98 100 100 100 100 100 100 100 100 100 100
82 86 90 93 98 99 92 87 78 68 62 56 54 55 47 52 54 50 47 43 42 43 46 53 62 87 89 100 100 100 96 100 98 100 100 98 98 100 100 100 100 100 100
89 91 94 97 100 97 86 78 74 72 70 78 74 61 63 65 59 52 48 47 47 49 55 62 68 79 98 100 100 100 100 99 100 100 100 100 97 100 100 100 100 100 100
87 90 97 93 93 90 87 86 83 85 86 88 93 83 76 67 58 53 53 53 51 55 66 68 62 66 92 99 100 100 100 96 100 100 100 99 100 100 100 100 95 94 90
96 91 94 83 94 94 88 84 87 95 100 100 95 85 73 64 59 57 57 54 55 63 75 81 90 97 98 93 99 96 100 100 100 100 90 92 100 100 99 99 99 98 95
92 96 91 88 99 96 89 97 98 100 100 99 90 81 71 64 63 60 56 59 60 69 75 84 94 100 100 100 100 100 100 100 100 100 100 100 100 100 97 100 100 100 100
100 100 99 99 98 100 100 100 100 100 98 91 86 80 73 69 61 58 57 56 50 55 68 82 100 100 100 100 100 100 100 99 100 100 100 100 100 100 89 81 96 100 100
96 98 100 100 100 100 100 100 100 98 94 90 89 90 78 62 57 57 47 40 40 46 80 100 100 100 100 100 100 100 100 100 100 100 100 100 98 100 96 90 99 100 98
98 99 100 100 100 100 99 96 95 95 97 100 100 97 77 69 53 45 45 42 39 59 82 100 100 100 100 100 100 100 100 100 100 96 98 99 100 100 100 100 100 98 98
94 94 97 98 100 100 100 100 99 100 100 100 98 97 88 64 51 51 50 42 44 56 63 100 100 100 100 98 97 97 96 100 100 92 100 100 100 100 100 100 100 100 99
100 100 100 100 100 100 100 100 100 100 100 99 98 98 84 69 60 61 57 47 53 51 58 97 95 100 100 99 95 94 85 94 100 100 100 100 100 100 100 100 100 100 97
100 100 100 100 100 100 100 100 100 100 96 98 98 97 90 84 67 58 60 54 57 58 62 64 98 100 100 100 100 100 99 100 100 100 100 100 100 100 100 100 100 97 82
100 99 100 100 100 100 100 100 100 100 99 100 100 97 93 82 61 63 66 62 56 57 63 65 83 100 100 100 100 100 100 100 100 100 100 100 100 100 100 100 89 81 83
96 100 100 100 96 95 98 99 99 99 99 97 97 66 57 61 74 75 70 68 61 56 58 67 79 100 96 100 100 100 100 100 100 100 100 100 100 100 100 100 93 86 95
100 97 100 100 90 87 100 100 100 100 83 42 40 48 73 79 82 70 50 47 63 71 64 75 95 100 100 98 100 100 100 100 100 100 100 100 100 98 96 98 94 90 92
100 98 92 90 78 94 100 100 97 65 46 50 57 70 84 99 85 60 48 47 55 64 84 75 100 100 100 100 100 100 100 100 100 100 100 100 99 97 95 95 95 99 80